Regional Weather Roundup
Issued by NWS

Home | Current Version | Previous Version | Text Only | Print | Product List | Glossary On
Versions: 1 2 3 4 5 6 7 8 9 10 11 12 13 14 15 16 17 18 19 20 21 22 23 24 25 26 27 28 29 30 31 32 33 34 35 36 37 38 39 40 41 42 43 44 45 46 47 48 49 50
000
ASUS43 KBIS 192259
RWRND

NORTH DAKOTA REGIONAL WEATHER ROUNDUP
NATIONAL WEATHER SERVICE BISMARCK ND
600 PM CDT SAT APR 19 2014

NOTE: "FAIR" INDICATES FEW OR NO CLOUDS BELOW 12,000 FEET WITH NO
SIGNIFICANT WEATHER AND/OR OBSTRUCTIONS TO VISIBILITY.


NDZ001>003-009>011-017-200000-
NORTHWEST NORTH DAKOTA

CITY           SKY/WX    TMP DP  RH WIND       PRES   REMARKS
WILLISTON      MOSUNNY   60  33  36 W10       29.92S
MINOT          SUNNY     55  32  41 W16G22    29.92R
$$

NDZ018>021-031>035-040>046-200000-
SOUTHWEST NORTH DAKOTA

CITY           SKY/WX    TMP DP  RH WIND       PRES   REMARKS
BISMARCK       SUNNY     64  34  32 NW13      29.94R
GARRISON         N/A     58  35  42 W16       29.93S
HETTINGER ARPT SUNNY     63  25  23 W13       29.96F
$$

NDZ004>008-012>016-024-026-027-054-200000-
NORTHEAST NORTH DAKOTA

CITY           SKY/WX    TMP DP  RH WIND       PRES   REMARKS
GRAND FORKS    MOSUNNY   59  40  49 W22       29.90R
DEVILS LAKE    PTSUNNY   52  36  54 W18       29.92R
$$

NDZ022-023-025-028>030-036>039-047>053-200000-
SOUTHEAST NORTH DAKOTA

CITY           SKY/WX    TMP DP  RH WIND       PRES   REMARKS
FARGO          SUNNY     68  31  25 W16G22    29.90S
$$




USA.gov is the U.S. government's official web portal to all federal, state and local government web resources and services.